TimeCST,TemperatureF,Dew PointF,Humidity,Sea Level PressureIn,VisibilityMPH,Wind Direction,Wind SpeedMPH,Gust SpeedMPH,PrecipitationIn,Events,Conditions,WindDirDegrees,DateUTC
12:54 AM,30.9,24.1,76,30.48,10.0,Calm,Calm,-,N/A,,Clear,0,2013-11-28 06:54:00
1:54 AM,30.9,24.1,76,30.48,10.0,Calm,Calm,-,N/A,,Clear,0,2013-11-28 07:54:00
2:54 AM,30.0,24.1,79,30.47,10.0,Calm,Calm,-,N/A,,Clear,0,2013-11-28 08:54:00
3:54 AM,30.0,23.0,75,30.48,10.0,Calm,Calm,-,N/A,,Clear,0,2013-11-28 09:54:00
4:54 AM,28.9,21.9,75,30.48,10.0,Calm,Calm,-,N/A,,Clear,0,2013-11-28 10:54:00
5:54 AM,28.9,23.0,78,30.50,10.0,Calm,Calm,-,N/A,,Clear,0,2013-11-28 11:54:00
6:54 AM,28.0,21.9,78,30.52,10.0,Calm,Calm,-,N/A,,Clear,0,2013-11-28 12:54:00
7:54 AM,33.1,26.1,75,30.53,10.0,Calm,Calm,-,N/A,,Clear,0,2013-11-28 13:54:00
8:54 AM,42.1,28.0,58,30.56,10.0,Calm,Calm,-,N/A,,Clear,0,2013-11-28 14:54:00
9:54 AM,46.0,27.0,47,30.57,10.0,Variable,3.5,-,N/A,,Clear,0,2013-11-28 15:54:00
10:54 AM,55.9,25.0,30,30.56,10.0,Calm,Calm,-,N/A,,Clear,0,2013-11-28 16:54:00
11:54 AM,64.0,21.9,20,30.53,10.0,Calm,Calm,-,N/A,,Clear,0,2013-11-28 17:54:00
12:54 PM,61.0,23.0,23,30.51,10.0,Calm,Calm,-,N/A,,Clear,0,2013-11-28 18:54:00
1:54 PM,63.0,23.0,22,30.49,10.0,SSW,4.6,-,N/A,,Clear,200,2013-11-28 19:54:00
2:54 PM,61.0,23.0,23,30.49,10.0,Variable,3.5,-,N/A,,Clear,0,2013-11-28 20:54:00
3:54 PM,57.9,25.0,28,30.48,10.0,Calm,Calm,-,N/A,,Clear,0,2013-11-28 21:54:00
4:54 PM,46.0,33.1,61,30.49,10.0,Calm,Calm,-,N/A,,Clear,0,2013-11-28 22:54:00
5:54 PM,39.0,32.0,76,30.51,10.0,Calm,Calm,-,N/A,,Clear,0,2013-11-28 23:54:00
6:54 PM,36.0,30.0,79,30.52,10.0,Calm,Calm,-,N/A,,Clear,0,2013-11-29 00:54:00
7:54 PM,34.0,28.0,79,30.54,10.0,Calm,Calm,-,N/A,,Clear,0,2013-11-29 01:54:00
8:54 PM,33.1,27.0,78,30.56,10.0,Calm,Calm,-,N/A,,Clear,0,2013-11-29 02:54:00
9:54 PM,33.1,26.1,75,30.57,10.0,Calm,Calm,-,N/A,,Clear,0,2013-11-29 03:54:00
10:54 PM,32.0,26.1,79,30.57,10.0,Calm,Calm,-,N/A,,Clear,0,2013-11-29 04:54:00
11:54 PM,30.9,25.0,79,30.56,10.0,Calm,Calm,-,N/A,,Clear,0,2013-11-29 05:54:00